Meteo Giornale » Osservazioni meteo Italia » Firenze-Peretola

ore: 20:50 - Osservazioni Meteo Firenze-Peretola
Lat. 43° 48' N Lon. 11° 12' E Alt. 40 metri s.l.m.

nuvoloso_piovaschi Europe/Rome

18 °C

Debole Rovescio di Pioggia

Temp. 24 Ore

11 °C

25 °C

Est/Sud-Est

20.3 Km/h

Dew point 15 °C

Umidità 82 %

Visibilità  8 Km

Il sole sorge alle ore 05:38

Il sole tramonta alle ore 20:45

Data e Ora Cielo e Fenomeni T °C DP °C Um. % Pres. hPa Vis. km Vento km/h
Oggi h: 20:50 nuvoloso_piovaschi Debole Rovescio di Pioggia 18 15 82 1014 8 E/SE 20.3
Oggi h: 20:20 molto_nuvoloso Molto Nuvoloso 21 12 56 1013 10 S 14.8
Oggi h: 19:50 molto_nuvoloso Molto Nuvoloso 22 13 56 1013 10 O/SO 16.7
Oggi h: 19:20 molto_nuvoloso Molto Nuvoloso 23 14 56 1012 10 O/SO 18.5
Oggi h: 18:20 poco_nuvoloso Poco Nuvoloso 25 13 47 1012 10 O 9.3
Oggi h: 17:50 nuvoloso Nuvoloso 25 13 47 1012 10 O/NO 11.1
Oggi h: 17:20 poco_nuvoloso Poco Nuvoloso 25 12 44 1012 10 O/NO 11.1
Oggi h: 16:50 poco_nuvoloso Poco Nuvoloso 25 14 50 1012 10 NO 11.1
Oggi h: 16:20 poco_nuvoloso Poco Nuvoloso 25 13 47 1012 10 NO 9.3
Oggi h: 15:50 poco_nuvoloso Poco Nuvoloso 25 12 44 1013 10 NO 9.3
Oggi h: 15:20 poco_nuvoloso Poco Nuvoloso 25 12 44 1013 10 N 9.3
Oggi h: 14:50 poco_nuvoloso Poco Nuvoloso 25 11 41 1013 10 NO 9.3
Oggi h: 14:20 sereno Sereno 24 11 43 1014 10 O 9.3
Oggi h: 13:50 sereno Sereno 24 12 47 1014 10 N 5.5
Oggi h: 13:20 sereno Sereno 23 11 46 1014 10 O/NO 7.4
Oggi h: 12:50 sereno Sereno 23 10 43 1014 10 N 5.5
Oggi h: 12:20 sereno Sereno 23 12 49 1014 10 NO 7.4
Oggi h: 11:50 sereno Sereno 22 12 53 1015 10 NO 7.4
Oggi h: 11:20 sereno Sereno 21 12 56 1015 10 N 5.5
Oggi h: 10:50 sereno Sereno 20 13 64 1015 10 N 3.7
Oggi h: 10:20 sereno Sereno 20 13 64 1015 10 N 5.5
Oggi h: 09:50 sereno Sereno 18 13 72 1015 10 N 3.7
Oggi h: 09:20 sereno Sereno 18 13 72 1015 10 N 3.7
Oggi h: 08:50 sereno Sereno 17 13 77 1015 10 N 3.7
Oggi h: 08:20 sereno Sereno 16 12 77 1015 10 N 1.8
Oggi h: 07:50 poco_nuvoloso Poco Nuvoloso 15 12 82 1015 10 N 3.7
Oggi h: 07:20 poco_nuvoloso Poco Nuvoloso 13 12 93 1015 10 N 1.8
Oggi h: 06:50 poco_nuvoloso Poco Nuvoloso 12 11 93 1015 10 N 3.7
Oggi h: 06:20 sereno Sereno 11 11 100 1014 10 N 1.8
Oggi h: 05:50 sereno Sereno 11 10 93 1014 10 N 5.5
Oggi h: 05:20 sereno Sereno 11 10 93 1014 10 N 1.8
Oggi h: 04:50 sereno Sereno 11 11 100 1014 10 N 1.8
Oggi h: 04:20 sereno Sereno 11 11 100 1014 10 N 5.5
Oggi h: 03:20 sereno Sereno 13 12 93 1014 10 N 1.8
Oggi h: 02:50 sereno Sereno 13 11 87 1014 10 N 3.7
Oggi h: 02:20 sereno Sereno 13 11 87 1014 10 N 5.5
Oggi h: 01:50 sereno Sereno 13 12 93 1014 10 E 7.4
Oggi h: 01:20 sereno Sereno 14 12 87 1014 10 N 5.5
Oggi h: 00:50 sereno Sereno 14 12 87 1014 10 E 9.3
Oggi h: 00:20 sereno Sereno 15 12 82 1014 10 E 9.3
Ieri h: 23:50 sereno Sereno 15 12 82 1014 10 E 9.3
Ieri h: 23:20 sereno Sereno 16 12 77 1014 10 N 3.7
Ieri h: 22:20 sereno Sereno 16 12 77 1014 10 N 5.5
Ieri h: 21:50 sereno Sereno 17 12 72 1014 10 N 3.7